Home > Weather > Simi Valley > Past weeks

Flag for U.S.A. Weather for the Past 2 Weeks in Simi Valley, California, U.S.A.

Now
60 °F

Sunny.


Feels Like: 60 °F
Forecast: 50 / 75 °F
Wind: 17 mph from North

Location: Van Nuys Airport

Current Time: Feb 6, 2016 at 8:16:22 AM

Latest Report: Feb 6, 2016 at 7:51 AM


Visibility: 10 mi

Pressure: 30.26 "Hg

Humidity: 24%

Dew point: 23 °F

Location of Simi ValleyLocation

Historic Weather in Simi Valley — Graph

°F

Simi Valley Temperature Yesterday

Maximum temperature yesterday: 72 °F (at 1:51 PM)
Minimum temperature yesterday: 56 °F (at 6:51 AM)
Average temperature yesterday: 64 °F

High & Low Weather Summary for the Past Weeks

 TemperatureHumidityPressure
High79 °F (Jan 29, 11:51 AM)90% (Jan 30, 6:51 AM)30.35 "Hg (Jan 30, 6:51 AM)
Low39 °F (Feb 1, 6:51 AM)10% (Jan 28, 12:51 PM)29.56 "Hg (Jan 31, 1:51 PM)
Average57 °F42%30.10 "Hg
* Reported Jan 22 6:51 AM — Feb 6 6:51 AM, Simi Valley, Weather by CustomWeather, © 2016

Note: Actual official high and low records may vary slightly from our data, if they occured in-between our weather recording intervals... More about our weather records

Advertising

Simi Valley Weather History for the Previous 24 Hours

 ConditionsComfort  
Time TempWeatherWind HumidityBarometerVisibility
6:51 AM
Sat, Feb 6
58 °FSunny.17 mph25%30.24 "Hg10 mi
5:51 AM59 °FClear.18 mph23%30.23 "Hg10 mi
4:51 AM58 °FClear.16 mph24%30.23 "Hg10 mi
3:51 AM59 °FClear.23 mph23%30.25 "Hg10 mi
2:51 AM58 °FClear.18 mph24%30.26 "Hg10 mi
1:51 AM59 °FClear.22 mph22%30.27 "Hg10 mi
12:51 AM60 °FClear.24 mph21%30.27 "Hg10 mi
11:51 PM
Fri, Feb 5
61 °FClear.21 mph20%30.27 "Hg10 mi
10:51 PM62 °FClear.17 mph20%30.27 "Hg10 mi
9:51 PM62 °FClear.15 mph20%30.27 "Hg10 mi
8:51 PM63 °FClear.16 mph18%30.27 "Hg10 mi
7:51 PM63 °FClear.16 mph19%30.27 "Hg10 mi
6:51 PM64 °FClear.14 mph18%30.27 "Hg10 mi
5:51 PM66 °FClear.14 mph16%30.26 "Hg10 mi
4:51 PM69 °FSunny.17 mph15%30.24 "Hg10 mi
3:51 PM71 °FSunny.16 mph15%30.23 "Hg10 mi
2:51 PM72 °FSunny.18 mph14%30.24 "Hg10 mi
1:51 PM72 °FSunny.16 mph14%30.25 "Hg10 mi
12:51 PM71 °FSunny.13 mph17%30.28 "Hg10 mi
11:51 AM69 °FSunny.16 mph17%30.30 "Hg10 mi
10:51 AM68 °FSunny.17 mph17%30.31 "Hg10 mi
9:51 AM66 °FSunny.16 mph18%30.32 "Hg10 mi
8:51 AM62 °FSunny.16 mph21%30.32 "Hg10 mi
Weather by CustomWeather, © 2016

See weather overviewHow to use our weather pages